TimePDT,TemperatureF,Dew PointF,Humidity,Sea Level PressureIn,VisibilityMPH,Wind Direction,Wind SpeedMPH,Gust SpeedMPH,PrecipitationIn,Events,Conditions,WindDirDegrees,DateUTC
12:15 AM,39.2,35.6,87,30.11,10.0,Calm,Calm,-,N/A,,Partly Cloudy,0,2013-10-31 07:15:00
12:35 AM,37.4,35.6,93,30.12,10.0,Calm,Calm,-,N/A,,Partly Cloudy,0,2013-10-31 07:35:00
12:55 AM,37.4,35.6,93,30.12,10.0,Calm,Calm,-,N/A,,Partly Cloudy,0,2013-10-31 07:55:00
1:15 AM,37.4,35.6,93,30.12,10.0,Calm,Calm,-,N/A,,Scattered Clouds,0,2013-10-31 08:15:00
1:35 AM,37.4,35.6,93,30.12,10.0,Calm,Calm,-,N/A,,Mostly Cloudy,0,2013-10-31 08:35:00
1:55 AM,37.4,35.6,93,30.13,10.0,Calm,Calm,-,N/A,,Overcast,0,2013-10-31 08:55:00
2:15 AM,37.4,35.6,93,30.13,10.0,Calm,Calm,-,N/A,,Overcast,0,2013-10-31 09:15:00
2:35 AM,37.4,35.6,93,30.13,10.0,Calm,Calm,-,N/A,,Overcast,0,2013-10-31 09:35:00
2:55 AM,37.4,35.6,93,30.12,10.0,Calm,Calm,-,N/A,,Scattered Clouds,0,2013-10-31 09:55:00
3:15 AM,37.4,35.6,93,30.13,10.0,Calm,Calm,-,N/A,,Clear,0,2013-10-31 10:15:00
3:35 AM,37.4,35.6,93,30.13,10.0,Calm,Calm,-,N/A,,Clear,0,2013-10-31 10:35:00
3:55 AM,37.4,35.6,93,30.13,10.0,Calm,Calm,-,N/A,,Clear,0,2013-10-31 10:55:00
4:15 AM,37.4,35.6,93,30.13,10.0,Calm,Calm,-,N/A,,Clear,0,2013-10-31 11:15:00
4:35 AM,35.6,33.8,93,30.12,10.0,Calm,Calm,-,N/A,,Clear,0,2013-10-31 11:35:00
4:55 AM,37.4,35.6,93,30.13,10.0,Calm,Calm,-,N/A,,Clear,0,2013-10-31 11:55:00
5:15 AM,35.6,35.6,100,30.13,10.0,Calm,Calm,-,N/A,,Clear,0,2013-10-31 12:15:00
5:35 AM,35.6,35.6,100,30.14,10.0,Calm,Calm,-,N/A,,Clear,0,2013-10-31 12:35:00
5:55 AM,35.6,35.6,100,30.14,10.0,Calm,Calm,-,N/A,,Clear,0,2013-10-31 12:55:00
6:15 AM,35.6,33.8,93,30.15,10.0,Calm,Calm,-,N/A,,Clear,0,2013-10-31 13:15:00
6:35 AM,35.6,35.6,100,30.15,10.0,Calm,Calm,-,N/A,,Clear,0,2013-10-31 13:35:00
6:55 AM,35.6,35.6,100,30.15,10.0,NNE,4.6,-,N/A,,Clear,20,2013-10-31 13:55:00
7:15 AM,35.6,33.8,93,30.15,10.0,NW,5.8,-,N/A,,Clear,320,2013-10-31 14:15:00
7:35 AM,37.4,35.6,93,30.16,10.0,ENE,9.2,-,N/A,,Clear,60,2013-10-31 14:35:00
7:55 AM,35.6,35.6,100,30.16,10.0,North,-9999.0,-,N/A,,Clear,0,2013-10-31 14:55:00
8:15 AM,-9999,-9999,N/A,30.16,-9999.0,North,-9999.0,-,N/A,,Unknown,0,2013-10-31 15:15:00
8:35 AM,41.0,39.2,93,30.17,10.0,Calm,Calm,-,N/A,,Clear,0,2013-10-31 15:35:00
8:55 AM,44.6,39.2,81,30.17,10.0,Calm,Calm,-,N/A,,Clear,0,2013-10-31 15:55:00
9:15 AM,48.2,41.0,76,30.18,10.0,Calm,Calm,-,N/A,,Clear,0,2013-10-31 16:15:00
9:35 AM,51.8,39.2,62,30.18,10.0,Calm,Calm,-,N/A,,Clear,0,2013-10-31 16:35:00
9:55 AM,55.4,37.4,51,30.18,10.0,Calm,Calm,-,N/A,,Clear,0,2013-10-31 16:55:00
10:15 AM,57.2,37.4,48,30.18,10.0,Calm,Calm,-,N/A,,Clear,0,2013-10-31 17:15:00
10:35 AM,57.2,37.4,48,30.18,10.0,SW,3.5,-,N/A,,Clear,230,2013-10-31 17:35:00
10:55 AM,59.0,37.4,45,30.17,10.0,Calm,Calm,-,N/A,,Clear,0,2013-10-31 17:55:00
11:15 AM,62.6,37.4,39,30.18,10.0,Calm,Calm,-,N/A,,Clear,0,2013-10-31 18:15:00
11:35 AM,62.6,37.4,39,30.17,10.0,SSW,3.5,-,N/A,,Clear,200,2013-10-31 18:35:00
11:55 AM,62.6,37.4,39,30.17,10.0,SSW,3.5,-,N/A,,Clear,210,2013-10-31 18:55:00
12:15 PM,64.4,37.4,37,30.16,10.0,SSW,3.5,-,N/A,,Clear,200,2013-10-31 19:15:00
12:35 PM,64.4,37.4,37,30.16,10.0,SSW,3.5,-,N/A,,Clear,210,2013-10-31 19:35:00
12:55 PM,64.4,37.4,37,30.15,10.0,South,4.6,-,N/A,,Clear,180,2013-10-31 19:55:00
1:15 PM,64.4,37.4,37,30.14,10.0,South,5.8,-,N/A,,Clear,190,2013-10-31 20:15:00
1:35 PM,64.4,37.4,37,30.14,10.0,WSW,5.8,-,N/A,,Clear,240,2013-10-31 20:35:00
1:55 PM,64.4,37.4,37,30.13,10.0,SSW,5.8,-,N/A,,Clear,200,2013-10-31 20:55:00
2:15 PM,66.2,37.4,35,30.13,10.0,West,4.6,-,N/A,,Clear,260,2013-10-31 21:15:00
2:35 PM,66.2,37.4,35,30.13,10.0,Calm,Calm,-,N/A,,Clear,0,2013-10-31 21:35:00
2:55 PM,66.2,37.4,35,30.12,10.0,SSW,3.5,-,N/A,,Clear,210,2013-10-31 21:55:00
3:15 PM,66.2,37.4,35,30.12,10.0,South,4.6,-,N/A,,Clear,170,2013-10-31 22:15:00
3:35 PM,66.2,37.4,35,30.12,10.0,SSW,3.5,-,N/A,,Clear,210,2013-10-31 22:35:00
3:55 PM,66.2,37.4,35,30.11,10.0,SW,4.6,-,N/A,,Clear,220,2013-10-31 22:55:00
4:15 PM,66.2,37.4,35,30.11,10.0,SW,4.6,-,N/A,,Clear,230,2013-10-31 23:15:00
4:35 PM,66.2,37.4,35,30.11,10.0,West,4.6,-,N/A,,Clear,260,2013-10-31 23:35:00
4:55 PM,64.4,35.6,34,30.11,10.0,Calm,Calm,-,N/A,,Clear,0,2013-10-31 23:55:00
5:15 PM,64.4,35.6,34,30.10,10.0,Calm,Calm,-,N/A,,Clear,0,2013-11-01 00:15:00
5:35 PM,62.6,37.4,39,30.10,10.0,Calm,Calm,-,N/A,,Clear,0,2013-11-01 00:35:00
5:55 PM,57.2,37.4,48,30.10,10.0,Calm,Calm,-,N/A,,Clear,0,2013-11-01 00:55:00
6:15 PM,55.4,39.2,54,30.11,10.0,Calm,Calm,-,N/A,,Clear,0,2013-11-01 01:15:00
6:35 PM,53.6,39.2,58,30.11,10.0,Calm,Calm,-,N/A,,Clear,0,2013-11-01 01:35:00
6:55 PM,50.0,39.2,66,30.12,10.0,Calm,Calm,-,N/A,,Clear,0,2013-11-01 01:55:00
7:15 PM,50.0,39.2,66,30.12,10.0,Calm,Calm,-,N/A,,Clear,0,2013-11-01 02:15:00
7:35 PM,48.2,37.4,66,30.13,10.0,Calm,Calm,-,N/A,,Clear,0,2013-11-01 02:35:00
7:55 PM,48.2,39.2,71,30.13,10.0,Calm,Calm,-,N/A,,Clear,0,2013-11-01 02:55:00
8:15 PM,46.4,37.4,71,30.13,10.0,Calm,Calm,-,N/A,,Clear,0,2013-11-01 03:15:00
8:35 PM,46.4,37.4,71,30.13,10.0,Calm,Calm,-,N/A,,Clear,0,2013-11-01 03:35:00
8:55 PM,46.4,37.4,71,30.13,10.0,Calm,Calm,-,N/A,,Clear,0,2013-11-01 03:55:00
9:15 PM,46.4,37.4,71,30.13,10.0,Calm,Calm,-,N/A,,Clear,0,2013-11-01 04:15:00
9:35 PM,46.4,39.2,76,30.13,10.0,Calm,Calm,-,N/A,,Clear,0,2013-11-01 04:35:00
9:55 PM,44.6,37.4,76,30.13,10.0,Calm,Calm,-,N/A,,Clear,0,2013-11-01 04:55:00
10:15 PM,44.6,37.4,76,30.14,10.0,Calm,Calm,-,N/A,,Clear,0,2013-11-01 05:15:00
10:35 PM,44.6,37.4,76,30.14,10.0,Calm,Calm,-,N/A,,Clear,0,2013-11-01 05:35:00
10:55 PM,44.6,37.4,76,30.14,10.0,Calm,Calm,-,N/A,,Clear,0,2013-11-01 05:55:00
11:15 PM,42.8,37.4,81,30.14,10.0,Calm,Calm,-,N/A,,Clear,0,2013-11-01 06:15:00
11:35 PM,42.8,37.4,81,30.14,10.0,Calm,Calm,-,N/A,,Clear,0,2013-11-01 06:35:00
11:55 PM,42.8,37.4,81,30.14,10.0,Calm,Calm,-,N/A,,Clear,0,2013-11-01 06:55:00